Location: B?ogocice
(50.2413°N, 20.2361°E)
Time: 00:18:22
(UTC+00:00)

Orbus 7S? - Pass Details

Date: 15 June 2024
Orbit: 365 x 6246 km, 56.9° (Epoch: 03 July)

Event Time Altitude Azimuth Distance (km) Brightness Sun altitude
Rises 01:03:25 0° 297° (WNW) 2,220 6.4 -9.8°
Reaches altitude 10° 01:05:11 10° 287° (WNW) 1,437 5.3 -9.7°
Maximum altitude 01:07:51 35° 217° (SW) 799 3.6 -9.5°
Drops below altitude 10° 01:12:00 10° 151° (SSE) 2,265 6.2 -9.1°
Sets 01:15:33 0° 144° (SE) 3,839 7.4 -8.8°
